When you browse on this site, cookies collect data to enhance your experience and personalize the content and advertising you see.
Visit our Privacy Policy to learn more. By continuing to use the site, you agree to this use of cookies and data.
  • In Latvia
  • List of Countries
  • For 7 days
  • Water Temperature
  • Weather Map
  • Weather Widgets
  • user-avatar
    Login

    Hourly Weather Tappita

    Today, 21 October, Monday

    Time Temperature Precipitation Wind Pressure Humidity
    00:00 +22°C° 0.2 mm 0 mps 737 mmHg 99%
    01:00 +21°C° 0.2 mm 0 mps 737 mmHg 99%
    02:00 +21°C° 0.2 mm 0 mps 737 mmHg 99%
    03:00 +21°C° 0.2 mm 0 mps 737 mmHg 99%
    04:00 +21°C° 0.2 mm 0 mps 737 mmHg 99%
    05:00 +22°C° 0 mm 0 mps 737 mmHg 99%
    06:00 +25°C° 0.8 mm 1 mps 737 mmHg 95%
    07:00 +25°C° 0.8 mm 1 mps 738 mmHg 92%
    08:00 +26°C° 0.8 mm 1 mps 738 mmHg 89%
    09:00 +29°C° 0 mm 1 mps 738 mmHg 77%
    10:00 +31°C° 0 mm 1 mps 737 mmHg 65%
    11:00 +34°C° 0 mm 1 mps 737 mmHg 53%
    12:00 +33°C° 1.8 mm 1 mps 736 mmHg 63%
    13:00 +32°C° 1.8 mm 1 mps 736 mmHg 72%
    14:00 +30°C° 1.8 mm 1 mps 735 mmHg 82%
    15:00 +29°C° 2.1 mm 1 mps 735 mmHg 86%
    16:00 +27°C° 2.1 mm 2 mps 735 mmHg 90%
    17:00 +26°C° 2.1 mm 2 mps 735 mmHg 94%
    18:00 +25°C° 0.9 mm 2 mps 736 mmHg 95%
    19:00 +25°C° 0.9 mm 2 mps 737 mmHg 96%
    20:00 +25°C° 0.9 mm 2 mps 737 mmHg 97%
    21:00 +25°C° 1.3 mm 2 mps 737 mmHg 97%
    22:00 +25°C° 1.3 mm 2 mps 737 mmHg 98%
    23:00 +24°C° 1.3 mm 1 mps 737 mmHg 98%

    Tomorrow, 22 October, Tuesday

    Time Temperature Precipitation Wind Pressure Humidity
    00:00 +24°C° 1.4 mm 1 mps 737 mmHg 98%
    01:00 +24°C° 1.4 mm 1 mps 736 mmHg 98%
    02:00 +24°C° 1.4 mm 1 mps 736 mmHg 98%
    03:00 +24°C° 0.1 mm 1 mps 736 mmHg 98%
    04:00 +24°C° 0.1 mm 1 mps 736 mmHg 98%
    05:00 +22°C° 0.1 mm 0 mps 736 mmHg 99%
    06:00 +25°C° 0.2 mm 1 mps 736 mmHg 96%
    07:00 +26°C° 0.2 mm 1 mps 737 mmHg 94%
    08:00 +27°C° 0.2 mm 1 mps 737 mmHg 91%
    09:00 +28°C° 0.6 mm 1 mps 737 mmHg 87%
    10:00 +29°C° 0.6 mm 1 mps 736 mmHg 83%
    11:00 +30°C° 0.6 mm 1 mps 736 mmHg 79%
    12:00 +29°C° 1.7 mm 2 mps 735 mmHg 81%
    13:00 +29°C° 1.7 mm 2 mps 735 mmHg 83%
    14:00 +29°C° 1.7 mm 2 mps 734 mmHg 85%
    15:00 +28°C° 1.7 mm 2 mps 734 mmHg 89%
    16:00 +27°C° 1.7 mm 2 mps 734 mmHg 92%
    17:00 +26°C° 1.7 mm 2 mps 734 mmHg 95%
    18:00 +25°C° 0.6 mm 1 mps 735 mmHg 96%
    19:00 +25°C° 0.6 mm 1 mps 736 mmHg 97%
    20:00 +25°C° 0.6 mm 1 mps 736 mmHg 98%
    21:00 +24°C° 0.1 mm 1 mps 736 mmHg 98%
    22:00 +24°C° 0.1 mm 1 mps 736 mmHg 99%
    23:00 +24°C° 0.1 mm 1 mps 736 mmHg 99%

    Day after tomorrow, 23 October, Wednesday

    Time Temperature Precipitation Wind Pressure Humidity
    00:00 +22°C° 0 mm 0 mps 736 mmHg 99%
    01:00 +22°C° 0 mm 0 mps 735 mmHg 99%
    02:00 +22°C° 0 mm 0 mps 735 mmHg 99%
    03:00 +22°C° 0 mm 0 mps 735 mmHg 99%
    04:00 +22°C° 0 mm 0 mps 735 mmHg 99%
    05:00 +22°C° 0 mm 0 mps 735 mmHg 99%
    06:00 +23°C° 0.1 mm 0 mps 736 mmHg 96%
    07:00 +26°C° 0.1 mm 1 mps 736 mmHg 93%
    08:00 +27°C° 0.1 mm 1 mps 737 mmHg 89%
    09:00 +29°C° 0.1 mm 1 mps 736 mmHg 80%
    10:00 +31°C° 0.1 mm 1 mps 736 mmHg 71%
    11:00 +32°C° 0.1 mm 1 mps 735 mmHg 62%
    12:00 +31°C° 1.6 mm 1 mps 735 mmHg 70%
    13:00 +30°C° 1.6 mm 1 mps 734 mmHg 78%
    14:00 +29°C° 1.6 mm 2 mps 734 mmHg 86%
    15:00 +28°C° 3 mm 2 mps 734 mmHg 89%
    16:00 +27°C° 3 mm 2 mps 734 mmHg 91%
    17:00 +26°C° 3 mm 2 mps 735 mmHg 94%
    18:00 +25°C° 3.4 mm 2 mps 736 mmHg 95%
    19:00 +25°C° 3.4 mm 2 mps 736 mmHg 96%
    20:00 +24°C° 3.4 mm 2 mps 737 mmHg 97%
    21:00 +24°C° 1.9 mm 2 mps 737 mmHg 97%
    22:00 +24°C° 1.9 mm 1 mps 737 mmHg 98%
    23:00 +24°C° 1.9 mm 1 mps 737 mmHg 98%

    24 October, Thursday

    Time Temperature Precipitation Wind Pressure Humidity
    00:00 +24°C° 0.1 mm 1 mps 737 mmHg 98%
    01:00 +22°C° 0.1 mm 0 mps 736 mmHg 99%
    02:00 +22°C° 0.1 mm 0 mps 736 mmHg 99%
    03:00 +22°C° 0 mm 0 mps 736 mmHg 99%
    04:00 +22°C° 0 mm 0 mps 736 mmHg 99%
    05:00 +21°C° 0 mm 0 mps 736 mmHg 99%
    06:00 +23°C° 0 mm 0 mps 737 mmHg 96%
    07:00 +24°C° 0 mm 0 mps 737 mmHg 92%
    08:00 +25°C° 0 mm 0 mps 738 mmHg 89%
    09:00 +27°C° 0.2 mm 0 mps 737 mmHg 80%
    10:00 +29°C° 0.2 mm 0 mps 737 mmHg 72%
    11:00 +30°C° 0.2 mm 0 mps 737 mmHg 63%
    12:00 +30°C° 1.4 mm 0 mps 736 mmHg 64%
    13:00 +30°C° 1.4 mm 0 mps 736 mmHg 65%
    14:00 +30°C° 1.4 mm 0 mps 735 mmHg 66%
    15:00 +30°C° 1.9 mm 1 mps 735 mmHg 75%
    16:00 +28°C° 1.9 mm 1 mps 736 mmHg 85%
    17:00 +26°C° 1.9 mm 2 mps 736 mmHg 94%
    18:00 +25°C° 0.5 mm 1 mps 736 mmHg 95%
    19:00 +25°C° 0.5 mm 1 mps 737 mmHg 97%
    20:00 +22°C° 0.5 mm 0 mps 737 mmHg 98%
    21:00 +22°C° 0 mm 0 mps 737 mmHg 98%
    22:00 +22°C° 0 mm 0 mps 737 mmHg 99%
    23:00 +22°C° 0 mm 0 mps 737 mmHg 99%

    25 October, Friday

    Time Temperature Precipitation Wind Pressure Humidity
    00:00 +22°C° 0 mm 0 mps 737 mmHg 99%
    01:00 +21°C° 0 mm 0 mps 737 mmHg 99%
    02:00 +21°C° 0 mm 0 mps 737 mmHg 99%
    03:00 +21°C° 0 mm 0 mps 737 mmHg 99%
    04:00 +21°C° 0 mm 0 mps 737 mmHg 99%
    05:00 +21°C° 0 mm 0 mps 737 mmHg 99%
    06:00 +22°C° 0 mm 0 mps 738 mmHg 97%
    07:00 +23°C° 0 mm 0 mps 738 mmHg 94%
    08:00 +23°C° 0 mm 0 mps 738 mmHg 92%
    09:00 +25°C° 0 mm 0 mps 738 mmHg 85%
    10:00 +27°C° 0 mm 0 mps 737 mmHg 78%
    11:00 +28°C° 0 mm 0 mps 737 mmHg 70%
    12:00 +30°C° 0 mm 0 mps 736 mmHg 63%
    13:00 +31°C° 0 mm 0 mps 736 mmHg 56%
    14:00 +33°C° 0 mm 0 mps 735 mmHg 49%
    15:00 +31°C° 0 mm 0 mps 735 mmHg 56%
    16:00 +31°C° 0 mm 1 mps 735 mmHg 64%
    17:00 +29°C° 0 mm 1 mps 735 mmHg 71%
    18:00 +28°C° 0.1 mm 1 mps 736 mmHg 79%
    19:00 +27°C° 0.1 mm 1 mps 737 mmHg 88%
    20:00 +25°C° 0.1 mm 1 mps 737 mmHg 96%
    21:00 +25°C° 0.4 mm 1 mps 737 mmHg 97%
    22:00 +24°C° 0.4 mm 1 mps 737 mmHg 98%
    23:00 +24°C° 0.4 mm 1 mps 737 mmHg 99%

    26 October, Saturday

    Time Temperature Precipitation Wind Pressure Humidity
    00:00 +22°C° 0.4 mm 0 mps 737 mmHg 99%
    01:00 +22°C° 0.4 mm 0 mps 737 mmHg 99%
    02:00 +22°C° 0.4 mm 0 mps 737 mmHg 99%
    03:00 +21°C° 0.5 mm 0 mps 737 mmHg 99%
    04:00 +21°C° 0.5 mm 0 mps 737 mmHg 99%
    05:00 +21°C° 0.5 mm 0 mps 737 mmHg 99%
    06:00 +22°C° 0 mm 0 mps 737 mmHg 96%
    07:00 +25°C° 0 mm 1 mps 738 mmHg 92%
    08:00 +27°C° 0 mm 1 mps 738 mmHg 89%
    09:00 +28°C° 0 mm 1 mps 738 mmHg 79%
    10:00 +30°C° 0 mm 1 mps 737 mmHg 69%
    11:00 +32°C° 0 mm 1 mps 737 mmHg 59%
    12:00 +32°C° 0.1 mm 1 mps 736 mmHg 63%
    13:00 +31°C° 0.1 mm 1 mps 736 mmHg 66%
    14:00 +30°C° 0.1 mm 1 mps 735 mmHg 69%
    15:00 +29°C° 0.6 mm 1 mps 735 mmHg 76%
    16:00 +28°C° 0.6 mm 1 mps 735 mmHg 83%
    17:00 +27°C° 0.6 mm 1 mps 735 mmHg 90%
    18:00 +26°C° 0.5 mm 1 mps 736 mmHg 92%
    19:00 +26°C° 0.5 mm 2 mps 736 mmHg 95%
    20:00 +25°C° 0.5 mm 2 mps 737 mmHg 98%
    21:00 +25°C° 0.2 mm 1 mps 737 mmHg 98%
    22:00 +24°C° 0.2 mm 1 mps 737 mmHg 99%
    23:00 +24°C° 0.2 mm 1 mps 737 mmHg 99%

    27 October, Sunday

    Time Temperature Precipitation Wind Pressure Humidity
    00:00 +24°C° 0.4 mm 1 mps 737 mmHg 99%
    01:00 +22°C° 0.4 mm 0 mps 736 mmHg 99%
    02:00 +22°C° 0.4 mm 0 mps 736 mmHg 99%
    03:00 +21°C° 0 mm 0 mps 736 mmHg 99%
    04:00 +21°C° 0 mm 0 mps 736 mmHg 99%
    05:00 +21°C° 0 mm 0 mps 736 mmHg 99%
    06:00 +23°C° 0 mm 0 mps 737 mmHg 94%
    07:00 +26°C° 0 mm 1 mps 737 mmHg 90%
    08:00 +27°C° 0 mm 1 mps 738 mmHg 85%
    09:00 +30°C° 0 mm 1 mps 737 mmHg 74%
    10:00 +32°C° 0 mm 1 mps 737 mmHg 63%
    11:00 +34°C° 0 mm 1 mps 737 mmHg 52%
    12:00 +34°C° 0.3 mm 1 mps 736 mmHg 55%
    13:00 +33°C° 0.3 mm 1 mps 736 mmHg 57%
    14:00 +34°C° 0.3 mm 2 mps 735 mmHg 60%
    15:00 +31°C° 1.3 mm 2 mps 735 mmHg 71%
    16:00 +28°C° 1.3 mm 2 mps 736 mmHg 82%
    17:00 +26°C° 1.3 mm 2 mps 736 mmHg 94%
    18:00 +25°C° 0.2 mm 1 mps 736 mmHg 95%
    19:00 +25°C° 0.2 mm 1 mps 737 mmHg 97%
    20:00 +24°C° 0.2 mm 1 mps 737 mmHg 98%
    21:00 +24°C° 0.1 mm 1 mps 737 mmHg 98%
    22:00 +24°C° 0.1 mm 1 mps 737 mmHg 99%
    23:00 +24°C° 0.1 mm 1 mps 737 mmHg 99%
    Show more